Date String (YYYY-MM-DD hh:mm:ss) UTC,Instrument flags,Ambient pressure (hPa),Sample flow (lpm),Bypass flow (lpm),Sample temperature (°C),Ambient temperature (°C),ASC tube jacket temperature (°C),LED temperature (°C),Box temperature (°C),Sample RH (%),Span deviation,Mass concentration (μg/m³),Mass concentration (μg/m³),Mass concentration (μg/m³)
DateTimeUTC,F1_M11,P_M11,Q1_M11,Q2_M11,T1_M11,T2_M11,T3_M11,T4_M11,T5_M11,U1_M11,ZSPAN_M11,X0_M11,X2_M11,X1_M11
2023-01-11 04:00:00,,0816.5,5.00,0.00,22.1,21.0,00.0,30.9,24.0,13.7,0000.0,0001.09,0000.66,0000.51
2023-01-11 04:01:00,,0816.5,5.01,0.00,22.1,21.0,00.0,31.0,24.0,13.6,0000.0,0001.11,0000.67,0000.51
2023-01-11 04:02:00,,0816.5,5.00,0.00,22.1,21.0,00.0,31.0,24.0,13.9,0000.0,0001.04,0000.67,0000.51
2023-01-11 04:03:00,,0817.0,5.00,0.00,22.1,20.9,00.0,31.0,24.0,14.5,0000.0,0000.99,0000.67,0000.51
2023-01-11 04:04:00,,0816.7,5.00,0.00,22.1,20.9,00.0,31.0,23.9,14.0,0000.0,0001.00,0000.65,0000.51
2023-01-11 04:05:00,,0816.6,5.00,0.00,22.1,21.0,00.0,31.0,24.0,13.8,0000.0,0001.04,0000.63,0000.52
2023-01-11 04:06:00,,0816.5,5.01,0.00,22.1,21.0,00.0,31.0,24.0,14.0,0000.0,0001.14,0000.64,0000.52
2023-01-11 04:07:00,,0816.5,5.00,0.00,22.2,21.0,00.0,31.0,24.0,14.1,0000.0,0001.16,0000.66,0000.54
2023-01-11 04:08:00,,0816.5,4.99,0.00,22.2,21.1,00.0,31.0,24.0,14.4,0000.0,0001.18,0000.67,0000.54
2023-01-11 04:09:00,,0816.5,5.00,0.00,22.2,21.1,00.0,31.0,24.1,14.2,0000.0,0001.19,0000.67,0000.54
2023-01-11 04:10:00,,0816.7,5.00,0.00,22.2,21.1,00.0,31.0,24.1,14.2,0000.0,0001.22,0000.68,0000.53
2023-01-11 04:11:00,,0816.8,4.99,0.00,22.2,21.0,00.0,31.0,24.0,14.4,0000.0,0001.24,0000.68,0000.54
2023-01-11 04:12:00,,0816.7,5.00,0.00,22.2,21.0,00.0,31.0,24.0,14.6,0000.0,0001.17,0000.65,0000.53
2023-01-11 04:13:00,,0816.7,5.00,0.00,22.2,21.0,00.0,31.0,24.0,14.1,0000.0,0001.23,0000.63,0000.51
2023-01-11 04:14:00,,0816.6,5.01,0.00,22.2,21.1,00.0,31.0,24.0,14.1,0000.0,0001.26,0000.64,0000.49
2023-01-11 04:15:00,,0817.1,5.00,0.00,22.2,21.1,00.0,31.0,24.0,14.1,0000.0,0001.34,0000.64,0000.48
2023-01-11 04:16:00,,0817.0,4.99,0.00,22.2,21.1,00.0,31.0,24.1,14.2,0000.0,0001.26,0000.63,0000.47
2023-01-11 04:17:00,,0816.6,5.02,0.00,22.2,21.1,00.0,31.1,24.1,14.0,0000.0,0001.06,0000.59,0000.45
2023-01-11 04:18:00,,0816.6,4.99,0.00,22.2,21.1,00.0,31.1,24.1,13.8,0000.0,0001.02,0000.56,0000.43
2023-01-11 04:19:00,,0816.6,4.99,0.00,22.3,21.1,00.0,31.1,24.1,13.8,0000.0,0001.16,0000.54,0000.42
2023-01-11 04:20:00,,0816.6,5.00,0.00,22.3,21.1,00.0,31.1,24.1,14.1,0000.0,0002.36,0000.54,0000.41
2023-01-11 04:21:00,,0817.0,5.01,0.00,22.3,21.1,00.0,31.1,24.0,14.9,0000.0,0002.44,0000.55,0000.40
2023-01-11 04:22:00,,0816.8,5.01,0.00,22.3,21.1,00.0,31.1,24.1,15.1,0000.0,0002.44,0000.54,0000.39
2023-01-11 04:23:00,,0816.9,4.99,0.00,22.3,21.1,00.0,31.1,24.1,14.7,0000.0,0002.63,0000.59,0000.39
2023-01-11 04:24:00,,0816.6,5.01,0.00,22.3,21.1,00.0,31.1,24.1,14.6,0000.0,0002.68,0000.62,0000.40
2023-01-11 04:25:00,,0816.6,5.00,0.00,22.3,21.0,00.0,31.1,24.1,14.7,0000.0,0002.69,0000.62,0000.40
2023-01-11 04:26:00,,0816.8,4.99,0.00,22.3,20.9,00.0,31.1,24.1,14.9,0000.0,0002.60,0000.62,0000.41
2023-01-11 04:27:00,,0817.1,4.99,0.00,22.3,20.9,00.0,31.1,24.1,14.7,0000.0,0002.65,0000.65,0000.42
2023-01-11 04:28:00,,0817.0,5.00,0.00,22.2,20.9,00.0,31.1,24.1,14.6,0000.0,0002.71,0000.68,0000.43
2023-01-11 04:29:00,,0816.8,5.00,0.00,22.3,20.9,00.0,31.1,24.1,14.6,0000.0,0002.77,0000.70,0000.44
2023-01-11 04:30:00,,0816.7,4.99,0.00,22.3,21.0,00.0,31.1,24.1,14.1,0000.0,0002.85,0000.73,0000.44
2023-01-11 04:31:00,,0816.6,4.99,0.00,22.2,21.0,00.0,31.1,24.0,13.9,0000.0,0001.80,0000.79,0000.45
2023-01-11 04:32:00,,0816.5,5.00,0.00,22.3,21.1,00.0,31.1,24.1,13.9,0000.0,0001.71,0000.78,0000.46
2023-01-11 04:33:00,,0816.5,5.00,0.00,22.3,21.1,00.0,31.1,24.1,13.8,0000.0,0001.78,0000.80,0000.48
2023-01-11 04:34:00,,0816.5,5.01,0.00,22.3,21.1,00.0,31.1,24.1,13.7,0000.0,0001.67,0000.79,0000.50
2023-01-11 04:35:00,,0816.4,5.00,0.00,22.3,21.0,00.0,31.1,24.1,13.7,0000.0,0001.49,0000.75,0000.51
2023-01-11 04:36:00,,0816.4,5.00,0.00,22.3,21.0,00.0,31.1,24.1,13.5,0000.0,0001.46,0000.75,0000.53
2023-01-11 04:37:00,,0816.5,5.00,0.00,22.3,21.0,00.0,31.1,24.1,13.6,0000.0,0001.44,0000.76,0000.55
2023-01-11 04:38:00,,0816.5,5.00,0.00,22.3,21.1,00.0,31.1,24.1,13.7,0000.0,0001.45,0000.77,0000.56
2023-01-11 04:39:00,,0816.5,5.00,0.00,22.3,21.1,00.0,31.1,24.1,13.6,0000.0,0001.44,0000.77,0000.57
2023-01-11 04:40:00,,0816.5,5.00,0.00,22.3,21.1,00.0,31.1,24.1,13.6,0000.0,0001.40,0000.76,0000.59
2023-01-11 04:41:00,,0816.5,5.00,0.00,22.3,21.1,00.0,31.1,24.1,13.7,0000.0,0001.46,0000.76,0000.60
2023-01-11 04:42:00,,0816.5,5.00,0.00,22.3,21.1,00.0,31.1,24.1,13.8,0000.0,0001.37,0000.71,0000.61
2023-01-11 04:43:00,,0816.6,5.00,0.00,22.3,21.1,00.0,31.1,24.1,13.9,0000.0,0001.26,0000.69,0000.61
2023-01-11 04:44:00,,0816.6,5.01,0.00,22.3,21.1,00.0,31.1,24.1,13.9,0000.0,0001.16,0000.69,0000.60
2023-01-11 04:45:00,,0816.5,5.00,0.00,22.3,21.1,00.0,31.1,24.1,14.5,0000.0,0001.18,0000.70,0000.60
2023-01-11 04:46:00,,0816.5,4.99,0.00,22.3,21.2,00.0,31.1,24.1,14.8,0000.0,0001.21,0000.70,0000.60
2023-01-11 04:47:00,,0816.4,5.01,0.00,22.3,21.1,00.0,31.1,24.1,14.9,0000.0,0001.80,0000.75,0000.60
2023-01-11 04:48:00,,0816.4,5.02,0.00,22.3,21.0,00.0,31.2,24.1,14.9,0000.0,0003.96,0000.82,0000.61
2023-01-11 04:49:00,,0816.4,5.01,0.00,22.3,21.1,00.0,31.2,24.1,14.7,0000.0,0004.14,0000.86,0000.61
2023-01-11 04:50:00,,0816.5,4.99,0.00,22.3,21.1,00.0,31.2,24.1,14.9,0000.0,0004.24,0000.88,0000.60
2023-01-11 04:51:00,,0816.5,5.01,0.00,22.3,21.1,00.0,31.2,24.1,14.7,0000.0,0004.28,0000.89,0000.60
2023-01-11 04:52:00,,0816.5,4.99,0.00,22.3,21.0,00.0,31.2,24.1,14.8,0000.0,0004.28,0000.91,0000.60
2023-01-11 04:53:00,,0816.5,5.00,0.00,22.3,20.9,00.0,31.2,24.1,14.7,0000.0,0004.15,0000.92,0000.60
2023-01-11 04:54:00,,0816.5,5.00,0.00,22.3,20.9,00.0,31.2,24.1,14.6,0000.0,0004.38,0000.99,0000.61
2023-01-11 04:55:00,,0816.4,5.01,0.00,22.3,20.8,00.0,31.2,24.1,14.6,0000.0,0004.55,0001.03,0000.62
2023-01-11 04:56:00,,0816.4,5.01,0.00,22.2,20.8,00.0,31.1,24.0,14.6,0000.0,0004.58,0001.04,0000.62
2023-01-11 04:57:00,,0816.5,5.00,0.00,22.2,20.7,00.0,31.1,24.0,14.7,0000.0,0004.66,0001.06,0000.62
2023-01-11 04:58:00,,0816.5,5.00,0.00,22.2,20.7,00.0,31.1,24.0,14.7,0000.0,0004.14,0001.06,0000.61
2023-01-11 04:59:00,,0816.5,5.00,0.00,22.2,20.7,00.0,31.1,24.0,14.6,0000.0,0002.23,0001.03,0000.60
